TimeEST,TemperatureF,Dew PointF,Humidity,Sea Level PressureIn,VisibilityMPH,Wind Direction,Wind SpeedMPH,Gust SpeedMPH,PrecipitationIn,Events,Conditions,WindDirDegrees,DateUTC
12:15 AM,31.1,26.4,83,29.84,10.0,Calm,Calm,-,N/A,,Overcast,0,2012-12-29 05:15:00
12:35 AM,31.1,26.4,83,29.85,10.0,Calm,Calm,-,N/A,,Overcast,0,2012-12-29 05:35:00
12:55 AM,31.3,26.6,83,29.83,5.0,NE,3.5,-,N/A,Snow,Light Snow,40,2012-12-29 05:55:00
1:15 AM,30.9,26.8,85,29.81,2.0,NE,6.9,-,N/A,Snow,Light Snow,40,2012-12-29 06:15:00
1:35 AM,30.4,26.6,86,29.79,2.0,NE,9.2,-,N/A,Snow,Light Snow,40,2012-12-29 06:35:00
1:55 AM,29.8,26.6,88,29.77,1.5,NE,9.2,-,N/A,Snow,Light Snow,40,2012-12-29 06:55:00
2:15 AM,29.3,26.4,89,29.77,2.0,NE,8.1,-,N/A,Snow,Light Snow,50,2012-12-29 07:15:00
2:35 AM,29.3,26.2,88,29.77,2.5,NE,6.9,-,N/A,Snow,Light Snow,50,2012-12-29 07:35:00
2:55 AM,29.3,26.4,89,29.77,1.2,NE,5.8,-,N/A,Snow,Light Snow,40,2012-12-29 07:55:00
3:15 AM,29.3,26.4,89,29.75,1.0,NE,6.9,-,N/A,Snow,Snow,40,2012-12-29 08:15:00
3:35 AM,29.1,26.2,89,29.76,0.8,NNE,4.6,-,N/A,Snow,Snow,20,2012-12-29 08:35:00
3:55 AM,28.9,25.9,88,29.72,1.2,NE,8.1,-,N/A,Snow,Light Snow,50,2012-12-29 08:55:00
4:15 AM,28.8,25.7,88,29.72,1.5,ENE,5.8,-,N/A,Snow,Light Snow,70,2012-12-29 09:15:00
4:35 AM,28.8,25.7,88,29.71,1.5,ENE,5.8,-,N/A,Snow,Light Snow,70,2012-12-29 09:35:00
4:55 AM,28.8,25.7,88,29.70,1.5,NE,4.6,-,N/A,Snow,Light Snow,50,2012-12-29 09:55:00
5:15 AM,28.4,25.7,90,29.70,1.2,NNE,4.6,-,N/A,Snow,Light Snow,30,2012-12-29 10:15:00
5:35 AM,28.4,25.5,89,29.70,2.5,NNE,4.6,-,N/A,Snow,Light Snow,20,2012-12-29 10:35:00
5:55 AM,28.4,25.5,89,29.70,2.0,NNW,5.8,-,N/A,Snow,Light Snow,340,2012-12-29 10:55:00
6:15 AM,28.4,25.5,89,29.70,1.0,NNW,4.6,-,N/A,Snow,Light Snow,330,2012-12-29 11:15:00
6:35 AM,28.8,25.7,88,29.70,2.5,NW,3.5,-,N/A,Snow,Light Snow,320,2012-12-29 11:35:00
6:55 AM,28.9,25.9,88,29.71,1.0,NW,5.8,-,N/A,Snow,Snow,320,2012-12-29 11:55:00
7:15 AM,28.6,25.7,89,29.71,1.2,NW,6.9,-,N/A,Snow,Light Snow,320,2012-12-29 12:15:00
7:35 AM,28.4,25.5,89,29.72,2.0,NW,6.9,-,N/A,Snow,Light Snow,320,2012-12-29 12:35:00
7:55 AM,28.4,25.3,88,29.72,1.5,North,8.1,-,N/A,Snow,Light Snow,350,2012-12-29 12:55:00
8:15 AM,28.4,25.2,88,29.72,4.0,North,6.9,-,N/A,Snow,Light Snow,350,2012-12-29 13:15:00
8:35 AM,28.4,25.3,88,29.73,1.2,NNW,6.9,-,N/A,Snow,Light Snow,340,2012-12-29 13:35:00
8:55 AM,28.8,25.5,88,29.73,1.5,NNW,5.8,-,N/A,Snow,Light Snow,340,2012-12-29 13:55:00
9:15 AM,28.9,25.7,88,29.74,1.2,NNW,6.9,-,N/A,Snow,Light Snow,330,2012-12-29 14:15:00
9:35 AM,29.1,25.7,87,29.76,2.0,NW,6.9,-,N/A,Snow,Light Snow,320,2012-12-29 14:35:00
9:55 AM,30.0,25.9,85,29.76,4.0,NW,6.9,-,N/A,,Overcast,320,2012-12-29 14:55:00
10:15 AM,30.6,26.1,83,29.77,4.0,NW,8.1,-,N/A,,Haze,310,2012-12-29 15:15:00
10:35 AM,30.9,26.2,83,29.78,5.0,NW,5.8,-,N/A,,Haze,320,2012-12-29 15:35:00
10:55 AM,31.3,26.4,82,29.78,5.0,NW,6.9,-,N/A,,Haze,320,2012-12-29 15:55:00
11:15 AM,31.8,26.2,80,29.79,5.0,NW,6.9,-,N/A,,Haze,310,2012-12-29 16:15:00
11:35 AM,32.0,26.1,79,29.80,5.0,WNW,10.4,-,N/A,,Haze,300,2012-12-29 16:35:00
11:55 AM,32.0,25.9,78,29.81,5.0,WNW,8.1,-,N/A,,Haze,290,2012-12-29 16:55:00
12:15 PM,32.0,25.9,78,29.80,5.0,WNW,10.4,-,N/A,,Haze,300,2012-12-29 17:15:00
12:35 PM,32.0,25.7,78,29.80,7.0,NW,10.4,-,N/A,,Overcast,310,2012-12-29 17:35:00
12:55 PM,32.0,26.1,79,29.81,5.0,WNW,9.2,-,N/A,,Haze,290,2012-12-29 17:55:00
1:15 PM,32.2,26.4,79,29.81,7.0,WNW,9.2,-,N/A,,Overcast,290,2012-12-29 18:15:00
1:55 PM,32.0,26.1,79,29.82,7.0,WNW,11.5,-,N/A,,Overcast,290,2012-12-29 18:55:00
2:15 PM,32.0,26.1,79,29.83,5.0,West,12.7,-,N/A,,Haze,280,2012-12-29 19:15:00
2:35 PM,32.0,25.9,78,29.83,5.0,West,10.4,-,N/A,,Haze,280,2012-12-29 19:35:00
2:55 PM,31.8,25.9,79,29.85,4.0,WNW,13.8,19.6,N/A,,Haze,290,2012-12-29 19:55:00
3:15 PM,31.5,25.7,79,29.85,4.0,West,10.4,-,N/A,,Haze,280,2012-12-29 20:15:00
3:35 PM,31.5,25.5,79,29.87,3.0,West,10.4,-,N/A,,Haze,280,2012-12-29 20:35:00
3:55 PM,31.5,25.7,79,29.88,3.0,West,10.4,-,N/A,,Haze,280,2012-12-29 20:55:00
4:15 PM,31.5,25.7,79,29.88,3.0,WNW,10.4,-,N/A,Snow,Light Snow,290,2012-12-29 21:15:00
4:35 PM,31.5,25.7,79,29.90,3.0,WNW,11.5,-,N/A,,Haze,290,2012-12-29 21:35:00
4:55 PM,31.1,25.5,80,29.91,3.0,West,11.5,17.3,N/A,,Haze,280,2012-12-29 21:55:00
5:15 PM,31.1,25.5,80,29.92,3.0,West,13.8,-,N/A,,Haze,280,2012-12-29 22:15:00
5:35 PM,31.1,25.5,80,29.93,2.5,West,10.4,16.1,N/A,Snow,Light Snow,280,2012-12-29 22:35:00
5:55 PM,31.1,25.9,81,29.94,2.0,West,8.1,-,N/A,Snow,Light Snow,280,2012-12-29 22:55:00
6:15 PM,31.1,26.1,82,29.95,2.0,West,4.6,-,N/A,Snow,Light Snow,260,2012-12-29 23:15:00
6:35 PM,30.7,26.2,83,29.95,1.8,WSW,4.6,-,N/A,Snow,Light Snow,250,2012-12-29 23:35:00
6:55 PM,30.6,26.2,84,29.96,1.8,WSW,4.6,-,N/A,Snow,Light Snow,250,2012-12-29 23:55:00
7:15 PM,30.6,26.4,85,29.97,1.8,WSW,4.6,-,N/A,Snow,Light Snow,250,2012-12-30 00:15:00
7:35 PM,30.6,26.4,85,29.98,2.0,WSW,3.5,-,N/A,Snow,Light Snow,240,2012-12-30 00:35:00
7:55 PM,30.7,26.6,85,29.98,2.0,West,4.6,-,N/A,Snow,Light Snow,260,2012-12-30 00:55:00
8:15 PM,31.3,26.8,83,29.98,3.0,West,8.1,-,N/A,,Overcast,260,2012-12-30 01:15:00
8:35 PM,31.6,26.8,82,30.00,4.0,West,18.4,28.8,N/A,Snow,Light Snow,280,2012-12-30 01:35:00
8:55 PM,31.3,25.3,79,30.01,4.0,West,19.6,25.3,N/A,,Haze,280,2012-12-30 01:55:00
9:15 PM,30.7,24.6,78,30.02,5.0,West,16.1,27.6,N/A,,Haze,280,2012-12-30 02:15:00
9:35 PM,30.2,24.3,79,30.03,5.0,West,17.3,23.0,N/A,,Haze,280,2012-12-30 02:35:00
9:55 PM,30.2,23.9,77,30.04,5.0,West,15.0,-,N/A,Snow,Light Snow,270,2012-12-30 02:55:00
10:15 PM,29.7,23.7,79,30.05,4.0,WNW,15.0,20.7,N/A,Snow,Light Snow,290,2012-12-30 03:15:00
10:35 PM,29.1,23.4,79,30.06,7.0,West,18.4,-,N/A,,Overcast,280,2012-12-30 03:35:00
10:55 PM,29.1,22.8,77,30.07,5.0,West,16.1,21.9,N/A,Snow,Light Snow,280,2012-12-30 03:55:00
11:15 PM,28.8,23.0,79,30.08,4.0,West,15.0,-,N/A,Snow,Light Snow,270,2012-12-30 04:15:00
11:35 PM,28.4,23.0,80,30.10,5.0,West,16.1,-,N/A,Snow,Light Snow,270,2012-12-30 04:35:00
11:55 PM,28.4,22.8,80,30.10,5.0,West,13.8,18.4,N/A,Snow,Light Snow,270,2012-12-30 04:55:00